Location: Unspecified
(0.0000°N, 0.0000°E)
Time: 05:37:24
(UTC+00:00)

deb Midas III - Pass Details

Date: 18 March 2026
Orbit: 3314 x 3545 km, 91.1° (Epoch: 15 April)

Event Time Altitude Azimuth Distance (km) Brightness Sun altitude
Rises 00:52:14 0° 165° (SSE) 7,609 ? -78.9°
Reaches altitude 10° 00:56:40 10° 162° (SSE) 6,570 ? -77.8°
Enters shadow 01:00:37 21° 157° (SSE) 5,681 ? -76.9°
Exits shadow 01:29:18 18° 8° (N) 5,765 ? -69.7°
Drops below altitude 10° 01:32:02 10° 5° (N) 6,399 ? -69.0°
Sets 01:36:12 0° 3° (N) 7,403 ? -68.0°
